ORBCOMM FM119 [-] (41180 NORAD) Tracking and Keplerian Element Data

This shows tracking and keplerian element data for the satellite.

Feedback or suggestion? Click here.




ElementValue
Catalog41180
NameORBCOMM FM119 [-]
Epoch Orbit22841
Epoch Day91.87612736
Epoch Year2020
RAAN150.1997
Inclination47.0009
Eccentricity0.0001808
Argument of Perigee328.6539
Mean Anonmoly31.4237
Mean Motion14.547867
Decay Rate-6.8E-07
L11 41180U 15081B 20091.87612736 -.00000068 00000-0 22608-4 0 9998
L22 41180 47.0009 150.1997 0001808 328.6539 31.4237 14.54786700228410

Live tracking and technical data element details for ORBCOMM FM119 [-] (NORAD 41180). ORBCOMM FM119 [-] can be tracked NOW for your location showing map with azimuth and elevation plus other details from your city location.

Track the satellite on the map from your city or location and see movement details for azimuth, elevation, latitude, longitude, range, height, and movement on the map or in text.







IsCatalogInMostPopularTable: catalog: 41180, numindb: 318
Update: records affected: 1



GetName: 41180 ORBCOMM FM119 [-]

Hit Count: updated at: Fri, 03 Apr 2020 07:27:28 GMT